Location: Unspecified
(0.0000°N, 0.0000°E)
Time: 10:02:22
(UTC+00:00)

Kosmos-1506 - Visible Passes

Search period start: 05 June 2023 00:00
Search period end: 15 June 2023 00:00
Orbit: 946 x 1008 km, 82.9° (Epoch: 04 June)

Date Brightness Start Highest point End Pass type
(mag) Time Alt. Az. Time Alt. Az. Time Alt. Az.
05 Jun 6.8 18:54:37 10° NE 18:58:25 17° E 18:58:55 17° E visible
05 Jun 6.7 20:38:00 10° NNW 20:43:30 35° W 20:43:40 35° W visible
06 Jun 5.9 19:18:29 10° NNE 19:24:07 39° E 19:25:23 35° ESE visible
06 Jun 7.8 21:05:49 10° WNW 21:09:11 15° W 21:10:08 15° WSW visible
07 Jun 5.3 19:43:40 10° N 19:49:48 87° E 19:51:54 44° S visible
08 Jun 7.0 18:27:28 10° ENE 18:30:24 14° E 18:33:18 10° ESE visible
08 Jun 6.5 20:09:46 10° NNW 20:15:29 42° W 20:18:28 25° SSW visible
09 Jun 6.1 18:50:45 10° NNE 18:56:05 32° E 19:00:20 15° SE visible
09 Jun 7.7 20:37:06 10° NW 20:41:10 19° W 20:45:06 11° SW visible
10 Jun 5.3 19:15:42 10° N 19:21:47 73° E 19:27:01 14° S visible
11 Jun 6.2 19:41:35 10° NNW 19:47:28 51° W 19:53:21 10° SSW visible
12 Jun 6.4 18:23:04 10° NNE 18:28:04 27° E 18:33:04 10° SE visible
12 Jun 7.5 20:08:34 10° NW 20:13:09 22° W 20:17:46 10° SW visible
13 Jun 5.5 18:47:46 10° N 18:53:46 60° E 18:59:44 10° SSE visible
14 Jun 5.9 19:13:28 10° NNW 19:19:27 61° W 19:25:27 10° S visible
